This is the latest recevied weather packets stored in our database for station/object K4VEB. If no packets are shown the sender has not sent any weather packets the latest 10 day(s).
| Time | Temp. | Humidity | Pressure | Rain* | Wind** | Luminosity | Snow |
|---|---|---|---|---|---|---|---|
| 1778109738 | 29.44° C | 63% | 1014.8 hPa | 0 mm | - | 38 W/m² | - |
| 1778109436 | 30° C | 62% | 1014.6 hPa | 0 mm | - | 47 W/m² | - |
| 1778109134 | 30° C | 62% | 1014.6 hPa | 0 mm | - | 55 W/m² | - |
| 1778108830 | 30° C | 61% | 1014.7 hPa | 0 mm | - | 66 W/m² | - |
| 1778108528 | 30.56° C | 61% | 1014.5 hPa | 0 mm | - | 77 W/m² | - |
| 1778108224 | 30.56° C | 60% | 1014.6 hPa | 0 mm | - | 92 W/m² | - |
| 1778107921 | 31.11° C | 59% | 1014.5 hPa | 0 mm | - | 100 W/m² | - |
| 1778107617 | 31.11° C | 58% | 1014.4 hPa | 0 mm | - | 117 W/m² | - |
| 1778107314 | 31.67° C | 57% | 1014.3 hPa | 0 mm | - | 130 W/m² | - |
| 1778107011 | 31.67° C | 57% | 1014.4 hPa | 0 mm | - | 74 W/m² | - |
| 1778106706 | 32.22° C | 57% | 1014.5 hPa | 0 mm | - | 161 W/m² | - |
| 1778106404 | 32.22° C | 56% | 1014.4 hPa | 0 mm | - | 188 W/m² | - |
| 1778106099 | 32.78° C | 56% | 1014.4 hPa | 0 mm | - | 235 W/m² | - |
| 1778105798 | 32.78° C | 55% | 1014.3 hPa | 0 mm | - | 195 W/m² | - |
| 1778105496 | 33.33° C | 53% | 1014.5 hPa | 0 mm | - | 192 W/m² | - |
| 1778105192 | 33.89° C | 50% | 1014.4 hPa | 0 mm | - | 294 W/m² | - |
| 1778104887 | 34.44° C | 39% | 1014.2 hPa | 0 mm | - | 112 W/m² | - |
| 1778104584 | 33.89° C | 39% | 1014.2 hPa | 0 mm | - | 287 W/m² | - |
| 1778104279 | 34.44° C | 38% | 1014.3 hPa | 0 mm | - | 157 W/m² | - |
| 1778103976 | 34.44° C | 37% | 1014.3 hPa | 0 mm | - | 276 W/m² | - |
| 1778103674 | 34.44° C | 38% | 1014.3 hPa | 0 mm | - | 267 W/m² | - |
| 1778103372 | 35° C | 36% | 1014.4 hPa | 0 mm | - | 144 W/m² | - |
| 1778103069 | 35° C | 36% | 1014.3 hPa | 0 mm | - | 360 W/m² | - |
| 1778102766 | 35° C | 37% | 1014.4 hPa | 0 mm | - | 398 W/m² | - |
| 1778102461 | 35° C | 36% | 1014.5 hPa | 0 mm | - | 293 W/m² | - |
* Rain latest hour (hover to see other rain measurements)
** Current wind speed in m/s (hover to see current wind gust speed)